This demonstration page uses our WeatherBlox Daily Observations layout. Learn more.

Left ArrowRight Arrow

39.01783, -85.05884

Hourly Observations for February 7, 2016

Temp ( °F °C ) Dew Point ( °F °C ) Humidity (%) Winds ( mph kmh ) Pressure ( in mb ) Visibility ( mi km ) Precip ( " mm )
12:52 am 00:52 Clear 34 1.1 23 -5 64 64 SSW 8 13 30.21 1023 10 16 N/A
1:52 am 01:52 Clear 33 0.6 23 -5 66 66 SSW 8 13 30.19 1022 10 16 N/A
2:52 am 02:52 Clear 34 1.1 23 -5 64 64 SSW 8 13 30.18 1022 10 16 N/A
3:52 am 03:52 Clear 33 0.6 23 -5 66 66 SSW 7 11 30.16 1021 10 16 N/A
4:52 am 04:52 Clear 31 -0.6 23 -5 72 72 SSW 7 11 30.14 1021 10 16 N/A
5:52 am 05:52 Clear 32 undefined 23 -5 69 69 SSW 7 11 30.13 1020 10 16 N/A
6:52 am 06:52 Clear 31 -0.6 22 -5.6 69 69 SSW 7 11 30.12 1020 10 16 N/A
7:52 am 07:52 Partly Cloudy 31 -0.6 22 -5.6 69 69 SSW 7 11 30.12 1020 10 16 N/A
8:52 am 08:52 Partly Cloudy 36 2.2 23 -5 59 59 SSW 9 15 30.11 1020 10 16 N/A
9:52 am 09:52 Mostly Cloudy 41 5 24 -4.4 51 51 SSW 12 19 30.09 1019 10 16 N/A
10:52 am 10:52 Mostly Cloudy 42 5.6 23 -5 47 47 SSW 10 17 30.08 1019 10 16 N/A
11:52 am 11:52 Mostly Cloudy 47 8.3 24 -4.4 41 41 SW 10 17 30.06 1018 10 16 N/A
12:52 pm 12:52 Partly Cloudy 50 10 23 -5 35 35 SSW 12 19 30.02 1017 10 16 N/A
1:52 pm 13:52 Partly Cloudy 52 11.1 20 -6.7 28 28 SSW 17 28 29.96 1015 10 16 N/A
2:52 pm 14:52 Partly Cloudy 53 11.7 20 -6.7 27 27 SW 15 24 29.92 1013 10 16 N/A
3:52 pm 15:52 Mostly Cloudy 50 10 21 -6.1 32 32 SSW 16 26 29.90 1013 10 16 N/A
5:52 pm 17:52 Mostly Cloudy 49 9.4 21 -6.1 33 33 SSW 8 13 29.88 1012 10 16 N/A
6:52 pm 18:52 Mostly Cloudy 47 8.3 21 -6.1 36 36 SSW 9 15 29.87 1012 10 16 N/A
7:52 pm 19:52 Mostly Cloudy 47 8.3 21 -6.1 36 36 S 8 13 29.86 1011 10 16 N/A
8:52 pm 20:52 Mostly Cloudy 46 7.8 21 -6.1 37 37 S 8 13 29.84 1011 10 16 N/A
9:52 pm 21:52 Cloudy 45 7.2 22 -5.6 40 40 SSW 7 11 29.81 1010 10 16 N/A
10:52 pm 22:52 Cloudy 45 7.2 22 -5.6 40 40 S 9 15 29.78 1009 10 16 N/A
11:52 pm 23:52 Cloudy 45 7.2 22 -5.6 40 40 SSW 9 15 29.76 1008 10 16 N/A

Powered by AerisWeather